Tracking 29777 objects as of 4-Oct-2024
HD Live streaming from Space Station
objects crossing your sky now

STARLINK-4500

Track STARLINK-4500 now!
10-day predictions
STARLINK-4500 is classified as:


NORAD ID: 53413
Int'l Code: 2022-097AB
Perigee: 545.6 km
Apogee: 548.1 km
Inclination: 53.2 °
Period: 95.4 minutes
Semi major axis: 6917 km
RCS: Unknown
Launch date: August 10, 2022
Source: United States (US)
Launch site: AIR FORCE EASTERN TEST RANGE (AFETR)
Your satellite tracking list
Your tracking list is empty




NASA's NSSDC Master Catalog

Two Line Element Set (TLE):
1 53413U 22097AB  24278.33034060  .00003823  00000-0  25812-3 0  9995
2 53413  53.2145 294.5883 0001781 102.6992 257.4199 15.08848885119949
Source of the keplerian elements: AFSPC